Air Quality Table

TIMESTAMP NO2 SO2 O3 PM10 PM2.5 CO TEMP HUM AIRPRES WS WD NO BENZENE
2022-12-08 09:00 47.4 µg/m3 0.73 µg/m3 10.7 µg/m3 29.34 µg/m3 19.57 µg/m3 0.45 mg/m3 15.28 °C 85.41 % 1,012.94 mbar 0.66 m/s 238.3 Deg 22.24 µg/m3 3.61 µg/m3
2022-12-08 01:00 54.82 µg/m3 1.1 µg/m3 4.12 µg/m3 105.09 µg/m3 70.08 µg/m3 0.74 mg/m3 16.93 °C 83.65 % 1,011.98 mbar 0.58 m/s 232.67 Deg 46.51 µg/m3 6.3 µg/m3
2022-12-07 17:00 40.64 µg/m3 0.66 µg/m3 30.18 µg/m3 136.02 µg/m3 39.03 µg/m3 0.36 mg/m3 20.06 °C 69.36 % 1,011.33 mbar 1.27 m/s 311.54 Deg 23.76 µg/m3 3.22 µg/m3
2022-12-07 09:00 39.06 µg/m3 0.89 µg/m3 23.51 µg/m3 25.99 µg/m3 16.19 µg/m3 0.41 mg/m3 17.81 °C 77.24 % 1,011.90 mbar 1 m/s 234.35 Deg 34.12 µg/m3 3.4 µg/m3
2022-12-07 01:00 56.9 µg/m3 0.92 µg/m3 17.75 µg/m3 42.23 µg/m3 28.15 µg/m3 0.61 mg/m3 18.28 °C 80.33 % 1,013.42 mbar 0.71 m/s 226.75 Deg 35.96 µg/m3 5.03 µg/m3
2022-12-06 17:00 60.14 µg/m3 1.87 µg/m3 32.73 µg/m3 114.85 µg/m3 38.53 µg/m3 0.74 mg/m3 18.88 °C 77.27 % 1,016.02 mbar 1.16 m/s 183.57 Deg 94.05 µg/m3 10.33 µg/m3
2022-12-06 09:00 54.18 µg/m3 2.78 µg/m3 2.36 µg/m3 38.42 µg/m3 27.11 µg/m3 1.19 mg/m3 13.8 °C 88.91 % 1,018.56 mbar 0.43 m/s 253.73 Deg 150.54 µg/m3 12.32 µg/m3
2022-12-06 01:00 69.75 µg/m3 2.92 µg/m3 2.93 µg/m3 67.85 µg/m3 45.23 µg/m3 1.5 mg/m3 15.6 °C 83.18 % 1,020.74 mbar 0.61 m/s 208.11 Deg 156.05 µg/m3 15.95 µg/m3
2022-12-05 17:00 44.56 µg/m3 1.36 µg/m3 49.73 µg/m3 122.43 µg/m3 30.1 µg/m3 0.51 mg/m3 19.08 °C 66.89 % 1,021.41 mbar 1.54 m/s 127.16 Deg 59.59 µg/m3 6.06 µg/m3
2022-12-05 09:00 54.75 µg/m3 2.18 µg/m3 5.74 µg/m3 40.97 µg/m3 25.78 µg/m3 0.95 mg/m3 13.77 °C 82.98 % 1,020.92 mbar 0.4 m/s 235.64 Deg 111.36 µg/m3 9.83 µg/m3
2022-12-05 01:00 63.77 µg/m3 1.68 µg/m3 4.97 µg/m3 52.63 µg/m3 34.93 µg/m3 1.12 mg/m3 15.89 °C 79.08 % 1,019.60 mbar 0.44 m/s 245.89 Deg 79.88 µg/m3 12.23 µg/m3
2022-12-04 17:00 21.81 µg/m3 0.58 µg/m3 57.82 µg/m3 75.09 µg/m3 23.07 µg/m3 0.37 mg/m3 19.72 °C 64.21 % 1,016.96 mbar 1.85 m/s 213.22 Deg 8.52 µg/m3 3.72 µg/m3
2022-12-04 09:00 47.31 µg/m3 1.09 µg/m3 3.1 µg/m3 34.82 µg/m3 22.45 µg/m3 0.64 mg/m3 14.75 °C 80.22 % 1,014.70 mbar 0.64 m/s 238.58 Deg 40.05 µg/m3 6.6 µg/m3
2022-12-04 01:00 21.52 µg/m3 0.38 µg/m3 55.27 µg/m3 56.51 µg/m3 30.43 µg/m3 0.31 mg/m3 19.15 °C 72.41 % 1,012.64 mbar 1.69 m/s 200.74 Deg 4.03 µg/m3 1.72 µg/m3
2022-12-03 17:00 21.92 µg/m3 0.49 µg/m3 59.66 µg/m3 63.22 µg/m3 24.7 µg/m3 0.32 mg/m3 20.61 °C 72.1 % 1,011.30 mbar 3.52 m/s 123.92 Deg 12.19 µg/m3 3.31 µg/m3
2022-12-03 09:00 20 µg/m3 0.51 µg/m3 61.98 µg/m3 39.62 µg/m3 16.81 µg/m3 0.23 mg/m3 18.56 °C 70.13 % 1,013.52 mbar 2.28 m/s 154.82 Deg 7.14 µg/m3 1.13 µg/m3
2022-12-03 01:00 65.04 µg/m3 1.21 µg/m3 23.31 µg/m3 28.7 µg/m3 13.78 µg/m3 0.64 mg/m3 16.98 °C 75.2 % 1,015.68 mbar 1.02 m/s 138.62 Deg 52.07 µg/m3 6.99 µg/m3
2022-12-02 17:00 53.76 µg/m3 1.18 µg/m3 33.2 µg/m3 41.91 µg/m3 12.9 µg/m3 0.52 mg/m3 17.31 °C 73.61 % 1,017.05 mbar 1.97 m/s 146.39 Deg 43.35 µg/m3 5.22 µg/m3
2022-12-02 09:00 55.84 µg/m3 2.64 µg/m3 2.82 µg/m3 34 µg/m3 22.73 µg/m3 1.1 mg/m3 12.46 °C 84.38 % 1,017.76 mbar 0.55 m/s 240.55 Deg 137.24 µg/m3 11.23 µg/m3
2022-12-02 01:00 67.9 µg/m3 2.4 µg/m3 3.74 µg/m3 59.08 µg/m3 34.42 µg/m3 1.26 mg/m3 13.8 °C 78.74 % 1,017.02 mbar 0.72 m/s 237.34 Deg 115.57 µg/m3 14.41 µg/m3
2022-12-01 17:00 45.19 µg/m3 0.8 µg/m3 35.98 µg/m3 38.69 µg/m3 12.36 µg/m3 0.36 mg/m3 17.61 °C 59.53 % 1,014.71 mbar 1.62 m/s 274.57 Deg 19.04 µg/m3 13.92 µg/m3
2022-12-01 09:00 53.62 µg/m3 1.61 µg/m3 20.96 µg/m3 17.71 µg/m3 9.79 µg/m3 0.59 mg/m3 13.48 °C 76.66 % 1,012.11 mbar 0.82 m/s 244.79 Deg 70.7 µg/m3 5.41 µg/m3
2022-12-01 01:00 60.47 µg/m3 1.05 µg/m3 15.17 µg/m3 17.06 µg/m3 11.49 µg/m3 0.56 mg/m3 13.25 °C 76.81 % 1,009.99 mbar 0.85 m/s 234.08 Deg 33.1 µg/m3 5.53 µg/m3
2022-11-30 17:00 54.56 µg/m3 0.89 µg/m3 31.21 µg/m3 13.5 µg/m3 7.48 µg/m3 0.37 mg/m3 14.2 °C 73.92 % 1,007.83 mbar 1.73 m/s 246.93 Deg 29.54 µg/m3 3.43 µg/m3
2022-11-30 09:00 46.67 µg/m3 0.93 µg/m3 23.76 µg/m3 8.39 µg/m3 8.18 µg/m3 0.43 mg/m3 12.56 °C 87.93 % 1,007.26 mbar 0.92 m/s 234.51 Deg 32.59 µg/m3 3.44 µg/m3
2022-11-30 01:00 39.6 µg/m3 0.73 µg/m3 43.48 µg/m3 8.31 µg/m3 7.78 µg/m3 0.42 mg/m3 12.97 °C 85.54 % 1,007.01 mbar 1.46 m/s 220.4 Deg 21.4 µg/m3 3.8 µg/m3
2022-11-29 17:00 33.05 µg/m3 0.75 µg/m3 56.97 µg/m3 10.44 µg/m3 7.65 µg/m3 0.33 mg/m3 14.91 °C 78.29 % 1,007.02 mbar 3.62 m/s 92.79 Deg 31.53 µg/m3 1.88 µg/m3
2022-11-29 09:00 29.37 µg/m3 0.57 µg/m3 52.29 µg/m3 9.47 µg/m3 6.76 µg/m3 0.2 mg/m3 14.59 °C 74.22 % 1,009.77 mbar 2.43 m/s 135.59 Deg 12.07 µg/m3 1.28 µg/m3
2022-11-29 01:00 61.5 µg/m3 1.24 µg/m3 20.58 µg/m3 43.7 µg/m3 16.13 µg/m3 0.53 mg/m3 15.94 °C 63.77 % 1,013.69 mbar 0.91 m/s 190.31 Deg 46.61 µg/m3 4.8 µg/m3
2022-11-28 17:00 26.13 µg/m3 0.9 µg/m3 62.72 µg/m3 30.44 µg/m3 11.72 µg/m3 0.32 mg/m3 16.94 °C 60.39 % 1,015.66 mbar 3.44 m/s 50.97 Deg 35.3 µg/m3 2.31 µg/m3
2022-11-28 09:00 9.97 µg/m3 0.54 µg/m3 70.94 µg/m3 16.43 µg/m3 9.92 µg/m3 0.21 mg/m3 16.71 °C 67.11 % 1,016.43 mbar 4.65 m/s 42.88 Deg 11.04 µg/m3 1.48 µg/m3
2022-11-28 01:00 4.15 µg/m3 0.43 µg/m3 75.66 µg/m3 13.83 µg/m3 10.47 µg/m3 0.17 mg/m3 16.51 °C 76.11 % 1,014.85 mbar 7.28 m/s 39.26 Deg 3.53 µg/m3 1.19 µg/m3
2022-11-27 17:00 7.31 µg/m3 0.4 µg/m3 76.34 µg/m3 11.63 µg/m3 9.19 µg/m3 0.14 mg/m3 16.79 °C 83.66 % 1,009.50 mbar 6.45 m/s 34.81 Deg 6.68 µg/m3 1.13 µg/m3
2022-11-27 09:00 4.69 µg/m3 0.35 µg/m3 72.02 µg/m3 6.72 µg/m3 4.91 µg/m3 0.13 mg/m3 16.2 °C 81.89 % 1,006.15 mbar 3.42 m/s 219.32 Deg 1.44 µg/m3 0.76 µg/m3
2022-11-27 01:00 26.9 µg/m3 0.4 µg/m3 48.11 µg/m3 9.71 µg/m3 7.43 µg/m3 0.25 mg/m3 15.9 °C 79.31 % 1,008.22 mbar 1.51 m/s 225.98 Deg 4.93 µg/m3 1.9 µg/m3
2022-11-26 17:00 35.37 µg/m3 0.48 µg/m3 40.18 µg/m3 10.24 µg/m3 7.56 µg/m3 0.27 mg/m3 16.11 °C 84.72 % 1,011.40 mbar 1.54 m/s 221.06 Deg 10.63 µg/m3 0.71 µg/m3
2022-11-26 09:00 37.53 µg/m3 0.74 µg/m3 30.97 µg/m3 17.6 µg/m3 11.97 µg/m3 0.4 mg/m3 17.54 °C 78.11 % 1,015.95 mbar 0.95 m/s 196.54 Deg 14.33 µg/m3 0 µg/m3
2022-11-26 01:00 71.84 µg/m3 1.42 µg/m3 7.6 µg/m3 42.08 µg/m3 24.51 µg/m3 0.86 mg/m3 16.7 °C 73.04 % 1,019.93 mbar 0.67 m/s 235.58 Deg 61.06 µg/m3 0 µg/m3
2022-11-25 17:00 30.74 µg/m3 0.55 µg/m3 55.47 µg/m3 30.97 µg/m3 10.65 µg/m3 0.25 mg/m3 19.31 °C 59.13 % 1,020.55 mbar 1.71 m/s 295.82 Deg 12.02 µg/m3 0 µg/m3
2022-11-25 09:00 45.53 µg/m3 1 µg/m3 25.84 µg/m3 22.75 µg/m3 13 µg/m3 0.48 mg/m3 16.26 °C 76.29 % 1,019.61 mbar 0.89 m/s 236.87 Deg 38.66 µg/m3 1.73 µg/m3
2022-11-25 01:00 32.47 µg/m3 0.44 µg/m3 45.85 µg/m3 23.96 µg/m3 15.35 µg/m3 0.31 mg/m3 17.61 °C 74.47 % 1,017.49 mbar 1.71 m/s 249.83 Deg 5.89 µg/m3 2.4 µg/m3
2022-11-24 17:00 26.98 µg/m3 0.45 µg/m3 50.75 µg/m3 29.18 µg/m3 11.95 µg/m3 0.24 mg/m3 20.03 °C 67.26 % 1,015.00 mbar 3.35 m/s 265.05 Deg 9.07 µg/m3 1.49 µg/m3
2022-11-24 09:00 18.19 µg/m3 0.41 µg/m3 41.19 µg/m3 18.16 µg/m3 12.56 µg/m3 0.23 mg/m3 18.79 °C 82.44 % 1,012.27 mbar 2.41 m/s 264.97 Deg 7.31 µg/m3 0.94 µg/m3
2022-11-24 01:00 15.76 µg/m3 0.44 µg/m3 53.51 µg/m3 11.03 µg/m3 6.9 µg/m3 0.22 mg/m3 18.37 °C 78.55 % 1,011.07 mbar 2.89 m/s 251.83 Deg 3.42 µg/m3 1.29 µg/m3
2022-11-23 17:00 23.37 µg/m3 0.54 µg/m3 57.08 µg/m3 21.92 µg/m3 8.53 µg/m3 0.2 mg/m3 19.15 °C 61.66 % 1,009.93 mbar 4.01 m/s 250.62 Deg 8.2 µg/m3 1.27 µg/m3
2022-11-23 09:00 18.19 µg/m3 0.51 µg/m3 58.87 µg/m3 27.56 µg/m3 9.05 µg/m3 0.18 mg/m3 16.25 °C 64.51 % 1,010.21 mbar 2.39 m/s 250.76 Deg 4.76 µg/m3 0.97 µg/m3
2022-11-23 01:00 13.92 µg/m3 0.45 µg/m3 67.04 µg/m3 µg/m3 µg/m3 0.14 mg/m3 17 °C 58.35 % 1,011.11 mbar 3.12 m/s 248.67 Deg 2.28 µg/m3 1.06 µg/m3
2022-11-22 17:00 19.74 µg/m3 0.43 µg/m3 63.32 µg/m3 57.32 µg/m3 19.71 µg/m3 0.16 mg/m3 19.14 °C 59.74 % 1,008.81 mbar 5.23 m/s 236.73 Deg 4.94 µg/m3 1.09 µg/m3
2022-11-22 09:00 9.24 µg/m3 0.42 µg/m3 76.05 µg/m3 25.02 µg/m3 9.85 µg/m3 0.11 mg/m3 18.62 °C 55.5 % 1,011.52 mbar 3.84 m/s 216.7 Deg 0.99 µg/m3 0.72 µg/m3
2022-11-22 01:00 35.85 µg/m3 0.5 µg/m3 46.34 µg/m3 17.63 µg/m3 6.64 µg/m3 0.27 mg/m3 17.67 °C 63.38 % 1,016.29 mbar 1.57 m/s 227.07 Deg 6.98 µg/m3 2.21 µg/m3
2022-11-21 17:00 35.01 µg/m3 0.54 µg/m3 48.32 µg/m3 18.99 µg/m3 9.45 µg/m3 0.23 mg/m3 17.58 °C 70.25 % 1,017.01 mbar 2.53 m/s 265.66 Deg 9.87 µg/m3 1.57 µg/m3
2022-11-21 09:00 22.25 µg/m3 0.52 µg/m3 56.93 µg/m3 13.13 µg/m3 6.77 µg/m3 0.17 mg/m3 16.58 °C 65.37 % 1,015.48 mbar 2.21 m/s 262.46 Deg 5.93 µg/m3 1.02 µg/m3
2022-11-21 01:00 12.26 µg/m3 0.49 µg/m3 67.07 µg/m3 14.26 µg/m3 8.39 µg/m3 0.19 mg/m3 17.41 °C 62.43 % 1,013.13 mbar 2.72 m/s 259.17 Deg 1.27 µg/m3 1.05 µg/m3
2022-11-20 17:00 12.1 µg/m3 0.49 µg/m3 67.47 µg/m3 12.9 µg/m3 6.4 µg/m3 0.18 mg/m3 16.56 °C 70.93 % 1,009.52 mbar 3.04 m/s 250.94 Deg 2.12 µg/m3 1.01 µg/m3
2022-11-20 09:00 21.41 µg/m3 0.48 µg/m3 46.35 µg/m3 53.01 µg/m3 22.16 µg/m3 0.19 mg/m3 19.28 °C 71.05 % 1,008.33 mbar 1.51 m/s 220.77 Deg 4.58 µg/m3 1.36 µg/m3
2022-11-20 01:00 17.7 µg/m3 0.37 µg/m3 54.92 µg/m3 74.38 µg/m3 30.01 µg/m3 0.2 mg/m3 21.94 °C 72.51 % 1,009.42 mbar 1.88 m/s 237.84 Deg 2.07 µg/m3 1.83 µg/m3
2022-11-19 17:00 15.45 µg/m3 0.3 µg/m3 58.27 µg/m3 36.43 µg/m3 14.96 µg/m3 0.19 mg/m3 23.61 °C 72.75 % 1,009.19 mbar 2.71 m/s 199.63 Deg 4.02 µg/m3 2.06 µg/m3
2022-11-19 09:00 28.7 µg/m3 0.69 µg/m3 31.87 µg/m3 34.28 µg/m3 22.85 µg/m3 0.41 mg/m3 20.86 °C 83.73 % 1,009.90 mbar 1.08 m/s 215.39 Deg 16.51 µg/m3 4.43 µg/m3
2022-11-19 01:00 47.04 µg/m3 0.96 µg/m3 19.98 µg/m3 31.48 µg/m3 20.99 µg/m3 0.69 mg/m3 20.84 °C 79.31 % 1,011.06 mbar 0.99 m/s 227.64 Deg 40.76 µg/m3 6.33 µg/m3
2022-11-18 17:00 22.34 µg/m3 0.36 µg/m3 54.54 µg/m3 32.67 µg/m3 11.47 µg/m3 0.2 mg/m3 23.56 °C 65.77 % 1,010.39 mbar 3.32 m/s 231.79 Deg 6.25 µg/m3 1.47 µg/m3
2022-11-18 09:00 27.18 µg/m3 0.4 µg/m3 40.19 µg/m3 12.86 µg/m3 7.8 µg/m3 0.26 mg/m3 20.62 °C 76.02 % 1,009.94 mbar 1.52 m/s 225.77 Deg 8.22 µg/m3 2.16 µg/m3
2022-11-18 01:00 51.1 µg/m3 0.58 µg/m3 20.66 µg/m3 21.56 µg/m3 14.41 µg/m3 0.46 mg/m3 19.84 °C 76.44 % 1,010.30 mbar 0.83 m/s 230.31 Deg 16.32 µg/m3 3.82 µg/m3
2022-11-17 17:00 35.96 µg/m3 0.53 µg/m3 45.87 µg/m3 18.56 µg/m3 9.3 µg/m3 0.29 mg/m3 21.8 °C 70.01 % 1,008.95 mbar 2.4 m/s 234.49 Deg 14.04 µg/m3 3.59 µg/m3
2022-11-17 09:00 50.79 µg/m3 1.34 µg/m3 9.95 µg/m3 µg/m3 µg/m3 0.66 mg/m3 17.94 °C 82.73 % 1,008.45 mbar 0.82 m/s 237.55 Deg 65.23 µg/m3 7.21 µg/m3
2022-11-17 01:00 61.59 µg/m3 1.01 µg/m3 8.98 µg/m3 µg/m3 µg/m3 0.74 mg/m3 19.65 °C 78.2 % 1,009.31 mbar 0.69 m/s 227.09 Deg 46.4 µg/m3 7.13 µg/m3
2022-11-16 17:00 25.35 µg/m3 0.35 µg/m3 57.23 µg/m3 28.11 µg/m3 11.36 µg/m3 0.19 mg/m3 23.2 °C 61.18 % 1,010.75 mbar 2.63 m/s 216.18 Deg 5.7 µg/m3 2.24 µg/m3
2022-11-16 09:00 43.37 µg/m3 0.64 µg/m3 30.42 µg/m3 17.67 µg/m3 10.37 µg/m3 0.36 mg/m3 20.25 °C 71.19 % 1,013.88 mbar 1.06 m/s 229.87 Deg 19.55 µg/m3 4.16 µg/m3
2022-11-16 01:00 70.57 µg/m3 2.22 µg/m3 7.19 µg/m3 42.61 µg/m3 26.85 µg/m3 1.28 mg/m3 19.36 °C 76.01 % 1,017.41 mbar 0.7 m/s 231.5 Deg 126.06 µg/m3 16.07 µg/m3
2022-11-15 17:00 38.85 µg/m3 0.7 µg/m3 41.74 µg/m3 21.34 µg/m3 8.56 µg/m3 0.29 mg/m3 22.5 °C 62.6 % 1,019.30 mbar 1.78 m/s 215.84 Deg 18.97 µg/m3 4.82 µg/m3
2022-11-15 09:00 54.3 µg/m3 2.19 µg/m3 8.26 µg/m3 29.8 µg/m3 20.27 µg/m3 1.01 mg/m3 16.59 °C 86.98 % 1,020.65 mbar 0.5 m/s 244.82 Deg 114.16 µg/m3 12.32 µg/m3
2022-11-15 01:00 64.06 µg/m3 2.71 µg/m3 6.96 µg/m3 38.55 µg/m3 25.33 µg/m3 1.42 mg/m3 17.84 °C 83.4 % 1,021.75 mbar 0.73 m/s 241.07 Deg 152.85 µg/m3 17.18 µg/m3
2022-11-14 17:00 57.75 µg/m3 0.88 µg/m3 22.44 µg/m3 18.83 µg/m3 9.67 µg/m3 0.42 mg/m3 19.6 °C 74.06 % 1,022.15 mbar 1.29 m/s 130 Deg 36.21 µg/m3 24.21 µg/m3
2022-11-14 09:00 44.94 µg/m3 1.99 µg/m3 5.38 µg/m3 29.43 µg/m3 19.88 µg/m3 0.86 mg/m3 17.51 °C 85.62 % 1,021.32 mbar 0.69 m/s 226.72 Deg 106.77 µg/m3 13.8 µg/m3
2022-11-14 01:00 66.24 µg/m3 2.16 µg/m3 4.2 µg/m3 42.3 µg/m3 27.13 µg/m3 1.31 mg/m3 18.43 °C 80.1 % 1,021.66 mbar 0.46 m/s 229.71 Deg 114.83 µg/m3 16.93 µg/m3
2022-11-13 17:00 33.9 µg/m3 0.63 µg/m3 51.56 µg/m3 26.56 µg/m3 11.16 µg/m3 0.29 mg/m3 20.7 °C 67.97 % 1,020.77 mbar 1.07 m/s 155.57 Deg 17.27 µg/m3 3.83 µg/m3
2022-11-13 09:00 30.41 µg/m3 0.62 µg/m3 34.51 µg/m3 8.75 µg/m3 6.81 µg/m3 0.32 mg/m3 17.44 °C 85.2 % 1,019.22 mbar 1.05 m/s 211.13 Deg 11.09 µg/m3 3.53 µg/m3
2022-11-13 01:00 39.11 µg/m3 0.52 µg/m3 34.1 µg/m3 12.86 µg/m3 11.34 µg/m3 0.35 mg/m3 17.03 °C 88.54 % 1,020.18 mbar 1.06 m/s 214.05 Deg 6.85 µg/m3 2.25 µg/m3
2022-11-12 17:00 36.04 µg/m3 0.74 µg/m3 49.06 µg/m3 20.7 µg/m3 13.86 µg/m3 0.39 mg/m3 19.14 °C 76.49 % 1,023.09 mbar 1.64 m/s 125.23 Deg 23.8 µg/m3 3.08 µg/m3
2022-11-12 09:00 25.44 µg/m3 0.67 µg/m3 58.96 µg/m3 17.9 µg/m3 10.67 µg/m3 0.33 mg/m3 19.97 °C 69.26 % 1,025.11 mbar 1.82 m/s 59.32 Deg 19.56 µg/m3 2.27 µg/m3
2022-11-12 01:00 21.88 µg/m3 0.63 µg/m3 67.42 µg/m3 13.77 µg/m3 8.42 µg/m3 0.32 mg/m3 20.48 °C 70.14 % 1,026.49 mbar 2.83 m/s 47.7 Deg 18.61 µg/m3 2.46 µg/m3
2022-11-11 17:00 27.04 µg/m3 0.77 µg/m3 68.17 µg/m3 10.26 µg/m3 4.53 µg/m3 0.3 mg/m3 21.07 °C 65.2 % 1,026.41 mbar 3.79 m/s 55.13 Deg 30.34 µg/m3 2.03 µg/m3
2022-11-11 09:00 49.76 µg/m3 1.68 µg/m3 14.88 µg/m3 20.66 µg/m3 14.13 µg/m3 0.7 mg/m3 17.61 °C 76.67 % 1,025.47 mbar 1.15 m/s 211.43 Deg 78.23 µg/m3 8.67 µg/m3
2022-11-11 01:00 67.37 µg/m3 1.71 µg/m3 10.44 µg/m3 34.04 µg/m3 19.27 µg/m3 0.9 mg/m3 19.17 °C 70.92 % 1,024.20 mbar 0.69 m/s 185.76 Deg 80.28 µg/m3 9.95 µg/m3
2022-11-10 17:00 29.1 µg/m3 0.86 µg/m3 60.26 µg/m3 15 µg/m3 5.64 µg/m3 0.3 mg/m3 21.25 °C 65.24 % 1,022.10 mbar 3.27 m/s 60.39 Deg 33.26 µg/m3 3.24 µg/m3
2022-11-10 09:00 57.94 µg/m3 2.06 µg/m3 7.52 µg/m3 27.79 µg/m3 16.47 µg/m3 0.81 mg/m3 17.19 °C 77.57 % 1,020.74 mbar 0.61 m/s 226.89 Deg 100.69 µg/m3 8.96 µg/m3
2022-11-10 01:00 77.87 µg/m3 2.24 µg/m3 10.54 µg/m3 49.8 µg/m3 24.08 µg/m3 1.14 mg/m3 18.83 °C 66.88 % 1,020.71 mbar 0.68 m/s 193 Deg 112.99 µg/m3 12.32 µg/m3
2022-11-09 17:00 43.95 µg/m3 0.97 µg/m3 51.15 µg/m3 23.41 µg/m3 7.9 µg/m3 0.34 mg/m3 21.51 °C 59.17 % 1,021.09 mbar 1.82 m/s 172.68 Deg 38.36 µg/m3 3.47 µg/m3
2022-11-09 09:00 61.25 µg/m3 1.8 µg/m3 10.35 µg/m3 28.39 µg/m3 14.75 µg/m3 0.72 mg/m3 16.78 °C 73.48 % 1,021.12 mbar 0.61 m/s 228.57 Deg 85.06 µg/m3 7.16 µg/m3
2022-11-09 01:00 69.59 µg/m3 1.52 µg/m3 10.58 µg/m3 34.85 µg/m3 19.08 µg/m3 0.89 mg/m3 18.52 °C 70.63 % 1,021.15 mbar 0.77 m/s 231.66 Deg 65.17 µg/m3 8.95 µg/m3

It is to be noted that the data is provisional and subject to quality assurance procedures. For validated data kindly refer your request to contact.air@era.org.mt